Tracking 28799 objects as of 18-Apr-2024
HD Live streaming from Space Station
objects crossing your sky now

COSMOS 1867 COOLANT

Track COSMOS 1867 COOLANT now!
10-day predictions


NORAD ID: 39672
Int'l Code: 1987-060AK
Perigee: 774.9 km
Apogee: 804.1 km
Inclination: 65.0 °
Period: 100.5 minutes
Semi major axis: 7160 km
RCS: Unknown
Launch date: July 10, 1987
Source: Commonwealth of Independent States (former USSR) (CIS)
Launch site: TYURATAM MISSILE AND SPACE COMPLEX (TTMTR)

Note: This is SATELLITE DEBRIS
Your satellite tracking list
Your tracking list is empty




NASA's NSSDC Master Catalog

Two Line Element Set (TLE):
1 39672U 87060AK  24108.50770458  .00001408  00000-0  55090-3 0  9994
2 39672  65.0057  70.6449 0020380 276.3880  83.4884 14.32798752523327
Source of the keplerian elements: AFSPC